Hourly Weather Barra Patuca

Today, 27 February, Saturday

Time Temperature Precipitation Wind Pressure Humidity
00:00 +25°C° 0 mm 4 mps 761 mmHg 85%
01:00 +25°C° 0.1 mm 4 mps 761 mmHg 85%
02:00 +25°C° 0.1 mm 4 mps 760 mmHg 86%
03:00 +25°C° 0.1 mm 4 mps 760 mmHg 87%
04:00 +25°C° 0 mm 4 mps 760 mmHg 87%
05:00 +25°C° 0 mm 4 mps 760 mmHg 87%
06:00 +25°C° 0 mm 3 mps 760 mmHg 87%
07:00 +25°C° 0.3 mm 4 mps 761 mmHg 86%
08:00 +26°C° 0.3 mm 5 mps 761 mmHg 86%
09:00 +27°C° 0.3 mm 5 mps 761 mmHg 86%
10:00 +28°C° 0 mm 6 mps 761 mmHg 76%
11:00 +30°C° 0 mm 6 mps 761 mmHg 67%
12:00 +32°C° 0 mm 6 mps 761 mmHg 58%
13:00 +32°C° 0 mm 6 mps 760 mmHg 59%
14:00 +30°C° 0 mm 6 mps 759 mmHg 60%
15:00 +30°C° 0 mm 6 mps 758 mmHg 60%
16:00 +29°C° 0.1 mm 6 mps 759 mmHg 68%
17:00 +28°C° 0.1 mm 6 mps 759 mmHg 75%
18:00 +26°C° 0.1 mm 5 mps 759 mmHg 83%
19:00 +26°C° 0.1 mm 5 mps 760 mmHg 84%
20:00 +26°C° 0.1 mm 5 mps 761 mmHg 86%
21:00 +26°C° 0.1 mm 5 mps 761 mmHg 88%
22:00 +26°C° 0.2 mm 5 mps 761 mmHg 88%
23:00 +26°C° 0.2 mm 5 mps 761 mmHg 88%

Tomorrow, 28 February, Sunday

Time Temperature Precipitation Wind Pressure Humidity
00:00 +25°C° 0.2 mm 5 mps 761 mmHg 89%
01:00 +25°C° 0.3 mm 5 mps 760 mmHg 89%
02:00 +26°C° 0.3 mm 5 mps 760 mmHg 89%
03:00 +26°C° 0.3 mm 5 mps 759 mmHg 90%
04:00 +26°C° 0.3 mm 5 mps 760 mmHg 89%
05:00 +26°C° 0.3 mm 5 mps 760 mmHg 89%
06:00 +26°C° 0.3 mm 5 mps 760 mmHg 89%
07:00 +27°C° 0.2 mm 6 mps 760 mmHg 85%
08:00 +28°C° 0.2 mm 6 mps 761 mmHg 81%
09:00 +29°C° 0.2 mm 7 mps 761 mmHg 77%
10:00 +30°C° 0.1 mm 7 mps 761 mmHg 71%
11:00 +30°C° 0.1 mm 7 mps 761 mmHg 65%
12:00 +32°C° 0.1 mm 7 mps 760 mmHg 59%
13:00 +32°C° 0.1 mm 7 mps 759 mmHg 60%
14:00 +32°C° 0.1 mm 7 mps 759 mmHg 61%
15:00 +30°C° 0.1 mm 7 mps 758 mmHg 62%
16:00 +29°C° 0.1 mm 6 mps 758 mmHg 67%
17:00 +28°C° 0.1 mm 6 mps 759 mmHg 71%
18:00 +27°C° 0.1 mm 5 mps 759 mmHg 75%
19:00 +26°C° 0.2 mm 5 mps 759 mmHg 78%
20:00 +26°C° 0.2 mm 5 mps 760 mmHg 81%
21:00 +25°C° 0.2 mm 4 mps 760 mmHg 84%
22:00 +25°C° 0.5 mm 4 mps 760 mmHg 85%
23:00 +25°C° 0.5 mm 4 mps 760 mmHg 87%

Day after tomorrow, 1 March, Monday

Time Temperature Precipitation Wind Pressure Humidity
00:00 +25°C° 0.5 mm 4 mps 760 mmHg 89%
01:00 +23°C° 0.5 mm 4 mps 760 mmHg 89%
02:00 +23°C° 0.5 mm 4 mps 759 mmHg 89%
03:00 +23°C° 0.5 mm 4 mps 759 mmHg 89%
04:00 +23°C° 0.1 mm 4 mps 759 mmHg 90%
05:00 +23°C° 0.1 mm 4 mps 759 mmHg 90%
06:00 +22°C° 0.1 mm 4 mps 760 mmHg 90%
07:00 +25°C° 0.4 mm 4 mps 760 mmHg 87%
08:00 +26°C° 0.4 mm 4 mps 761 mmHg 84%
09:00 +27°C° 0.4 mm 5 mps 761 mmHg 81%
10:00 +27°C° 0.8 mm 5 mps 761 mmHg 81%
11:00 +28°C° 0.8 mm 6 mps 760 mmHg 81%
12:00 +28°C° 0.8 mm 7 mps 760 mmHg 82%
13:00 +29°C° 0.1 mm 7 mps 759 mmHg 76%
14:00 +29°C° 0.1 mm 7 mps 759 mmHg 70%
15:00 +30°C° 0.1 mm 7 mps 758 mmHg 64%
16:00 +29°C° 0 mm 6 mps 759 mmHg 70%
17:00 +28°C° 0 mm 6 mps 759 mmHg 75%
18:00 +26°C° 0 mm 5 mps 759 mmHg 81%
19:00 +26°C° 0 mm 5 mps 760 mmHg 83%
20:00 +26°C° 0 mm 5 mps 760 mmHg 85%
21:00 +26°C° 0 mm 4 mps 761 mmHg 87%
22:00 +25°C° 0.1 mm 4 mps 760 mmHg 88%
23:00 +25°C° 0.1 mm 4 mps 760 mmHg 89%

2 March, Tuesday

Time Temperature Precipitation Wind Pressure Humidity
00:00 +25°C° 0.1 mm 4 mps 760 mmHg 90%
01:00 +25°C° 0.4 mm 4 mps 760 mmHg 91%
02:00 +25°C° 0.4 mm 4 mps 760 mmHg 92%
03:00 +23°C° 0.4 mm 4 mps 759 mmHg 92%
04:00 +24°C° 0.4 mm 3 mps 760 mmHg 93%
05:00 +24°C° 0.4 mm 3 mps 760 mmHg 93%
06:00 +24°C° 0.4 mm 3 mps 760 mmHg 94%
07:00 +25°C° 0.7 mm 3 mps 761 mmHg 91%
08:00 +26°C° 0.7 mm 4 mps 761 mmHg 89%
09:00 +27°C° 0.7 mm 4 mps 762 mmHg 86%
10:00 +27°C° 1.1 mm 5 mps 761 mmHg 85%
11:00 +28°C° 1.1 mm 5 mps 761 mmHg 84%
12:00 +28°C° 1.1 mm 5 mps 761 mmHg 83%
13:00 +28°C° 0.3 mm 5 mps 760 mmHg 80%
14:00 +29°C° 0.3 mm 5 mps 760 mmHg 78%
15:00 +29°C° 0.3 mm 5 mps 759 mmHg 75%
16:00 +28°C° 0 mm 4 mps 759 mmHg 78%
17:00 +27°C° 0 mm 4 mps 760 mmHg 81%
18:00 +26°C° 0 mm 4 mps 760 mmHg 83%
19:00 +26°C° 0 mm 3 mps 760 mmHg 85%
20:00 +25°C° 0 mm 3 mps 761 mmHg 87%
21:00 +25°C° 0 mm 3 mps 761 mmHg 89%
22:00 +25°C° 0 mm 3 mps 761 mmHg 90%
23:00 +25°C° 0 mm 3 mps 761 mmHg 90%

3 March, Wednesday

Time Temperature Precipitation Wind Pressure Humidity
00:00 +24°C° 0 mm 3 mps 761 mmHg 91%
01:00 +24°C° 0.2 mm 3 mps 761 mmHg 92%
02:00 +24°C° 0.2 mm 3 mps 760 mmHg 92%
03:00 +24°C° 0.2 mm 3 mps 760 mmHg 93%
04:00 +24°C° 0.2 mm 3 mps 760 mmHg 93%
05:00 +24°C° 0.2 mm 3 mps 761 mmHg 93%
06:00 +24°C° 0.2 mm 3 mps 761 mmHg 93%
07:00 +25°C° 0.1 mm 3 mps 761 mmHg 88%
08:00 +27°C° 0.1 mm 3 mps 762 mmHg 84%
09:00 +28°C° 0.1 mm 4 mps 762 mmHg 79%
10:00 +29°C° 0.1 mm 4 mps 762 mmHg 75%
11:00 +30°C° 0.1 mm 4 mps 761 mmHg 70%
12:00 +30°C° 0.1 mm 4 mps 761 mmHg 66%
13:00 +30°C° 0 mm 4 mps 760 mmHg 66%
14:00 +30°C° 0 mm 4 mps 760 mmHg 67%
15:00 +30°C° 0 mm 4 mps 759 mmHg 67%
16:00 +29°C° 0 mm 4 mps 760 mmHg 73%
17:00 +27°C° 0 mm 4 mps 760 mmHg 79%
18:00 +26°C° 0 mm 3 mps 760 mmHg 84%
19:00 +26°C° 0 mm 3 mps 761 mmHg 84%
20:00 +25°C° 0 mm 3 mps 761 mmHg 85%
21:00 +25°C° 0 mm 3 mps 761 mmHg 85%
22:00 +25°C° 0 mm 3 mps 761 mmHg 86%
23:00 +24°C° 0 mm 2 mps 761 mmHg 87%

4 March, Thursday

Time Temperature Precipitation Wind Pressure Humidity
00:00 +24°C° 0 mm 2 mps 761 mmHg 88%
01:00 +24°C° 0 mm 2 mps 761 mmHg 89%
02:00 +24°C° 0 mm 2 mps 761 mmHg 89%
03:00 +23°C° 0 mm 2 mps 761 mmHg 90%
04:00 +23°C° 0 mm 2 mps 761 mmHg 90%
05:00 +23°C° 0 mm 2 mps 761 mmHg 91%
06:00 +23°C° 0 mm 2 mps 761 mmHg 91%
07:00 +25°C° 0.1 mm 2 mps 761 mmHg 84%
08:00 +27°C° 0.1 mm 2 mps 762 mmHg 77%
09:00 +29°C° 0.1 mm 3 mps 762 mmHg 70%
10:00 +30°C° 0.1 mm 3 mps 761 mmHg 65%
11:00 +30°C° 0.1 mm 3 mps 761 mmHg 61%
12:00 +31°C° 0.1 mm 3 mps 760 mmHg 56%
13:00 +31°C° 0 mm 3 mps 760 mmHg 56%
14:00 +31°C° 0 mm 3 mps 759 mmHg 56%
15:00 +30°C° 0 mm 3 mps 759 mmHg 57%
16:00 +29°C° 0 mm 3 mps 759 mmHg 64%
17:00 +27°C° 0 mm 3 mps 759 mmHg 72%
18:00 +26°C° 0 mm 3 mps 759 mmHg 79%
19:00 +25°C° 0 mm 3 mps 759 mmHg 82%
20:00 +25°C° 0 mm 3 mps 760 mmHg 85%
21:00 +24°C° 0 mm 3 mps 760 mmHg 88%
22:00 +24°C° 0.1 mm 2 mps 760 mmHg 89%
23:00 +24°C° 0.1 mm 2 mps 759 mmHg 91%
Show more